Powrót do katalogu

STARLINK-35149

AktywnyŁącznośćVLEO
NORAD 65512·PAYLOAD·🇺🇸 United States

Wystrzelony Sep 5, 2025 z Cape Canaveral Space Force Station

Loading…

Następne Przeloty (najbliższe 24 godziny)

TLE

ŚwieżeSource: CelesTrak SupGP

Epoka: Sep 14, 2026, 22:57 UTC

1 65512C 25198W   26257.95673611  .00003782  00000+0  11176-3 0  2579
2 65512  53.1569 107.7407 0001261  86.3270 356.2269 15.34380709    16

Śledź STARLINK-35149 w czasie rzeczywistym z AllMySat

Download on the App Store